Weather History for TGPY - March, 2013

Change the Weather History Date:

Tuesday, March 26, 2013

  Actual Average Record
Temperature  
Mean Temperature 80 °F -  
Max Temperature 85 °F 84 °F 87 °F (2005)
Min Temperature 76 °F 76 °F 73 °F (2004)
Cooling Degree Days 16    
Growing Degree Days 30 (Base 50)    
Moisture  
Dew Point 73 °F    
Average Humidity 72    
Maximum Humidity 94    
Minimum Humidity 61    
Precipitation  
Precipitation 0.00 in - - ()
Sea Level Pressure  
Sea Level Pressure 29.95 in    
Wind  
Wind Speed 17 mph ()    
Max Wind Speed 23 mph    
Max Gust Speed -    
Visibility 7.9 miles    
Events Rain    
Averages and records for this station are not official NWS values.
T = Trace of Precipitation, MM = Missing Value Source: Averaged Metar Reports

Daily Weather History Graph

Daily Weather History Graph

Search for Another Location

Airport or City:

Trip Planner

Search our weather history database for the weather conditions in past years. The results will help you decide how hot, cold, wet, or windy it might be!

Date:

Astronomy

Mar. 26, 2013 Rise Set
Actual Time 6:07 AM AST 6:18 PM AST
Civil Twilight 5:46 AM AST 6:39 PM AST
Nautical Twilight 5:21 AM AST 7:03 PM AST
Astronomical Twilight 4:56 AM AST 7:28 PM AST
Moon 5:47 PM AST (3/26) 5:17 AM AST (3/26)
Length of Visible Light 12h 53m
Length of Day
12h 10m
Waxing Gibbous, 99% of the Moon is Illuminated
Mar 26
Waxing Gibbous
Mar 27
Full
Apr 3
Last Quarter
Apr 10
New
Apr 18
First Quarter

Hourly Weather History & Observations

Time (AST) Temp. Heat Index Dew Point Humidity Pressure Visibility Wind Dir Wind Speed Gust Speed Precip Events Conditions
12:00 AM 80.6 °F 85.4 °F 73.4 °F 79% 29.95 in 6.2 mi ESE 15.0 mph - N/A   Scattered Clouds
1:00 AM 78.8 °F - 77.0 °F 94% 29.95 in 6.2 mi ESE 15.0 mph - N/A   Scattered Clouds
2:00 AM 80 °F - 73 °F 74% 29.92 in 9 mi ESE 16.1 mph - - Rain Light Rain Showers
2:00 AM 78.8 °F - 73.4 °F 83% 29.92 in 6.2 mi ESE 16.1 mph - N/A Rain Light Rain Showers
3:00 AM 78.8 °F - 73.4 °F 83% 29.92 in 6.2 mi ESE 16.1 mph - N/A   Scattered Clouds
5:00 AM 80 °F - 71 °F 67% 29.92 in 10 mi ESE 17.3 mph - -   Widespread Dust
5:00 AM 80.6 °F 84.6 °F 71.6 °F 74% 29.92 in 6.2 mi ESE 17.3 mph - N/A   Scattered Clouds
6:00 AM 78.8 °F - 69.8 °F 74% 29.92 in 6.2 mi ESE 18.4 mph - N/A   Partly Cloudy
7:00 AM 80.6 °F 84.6 °F 71.6 °F 74% 29.95 in 6.2 mi ESE 18.4 mph - N/A   Partly Cloudy
8:00 AM 82 °F - 71 °F 63% 29.99 in 12 mi SE 20.7 mph - -   Widespread Dust
8:00 AM 82.4 °F 87.2 °F 71.6 °F 70% 29.98 in 6.2 mi SE 20.7 mph - N/A   Partly Cloudy
9:00 AM 84.2 °F 89.6 °F 71.6 °F 66% 30.01 in 6.2 mi ESE 21.9 mph - N/A   Partly Cloudy
10:00 AM 86.0 °F 91.8 °F 71.6 °F 62% 30.01 in - SE 19.6 mph - N/A   Clear
10:30 AM 86.0 °F 91.8 °F 71.6 °F 62% 30.01 in 6.2 mi SE 23.0 mph - N/A   Partly Cloudy
11:00 AM 84 °F - 72 °F 61% 30.01 in 16 mi ESE 23.0 mph - -   Scattered Clouds
11:00 AM 84.2 °F 90.9 °F 73.4 °F 70% 30.01 in 6.2 mi ESE 23.0 mph - N/A   Partly Cloudy
12:00 PM 84.2 °F 90.9 °F 73.4 °F 70% 29.98 in 6.2 mi SE 20.7 mph - N/A   Partly Cloudy
1:00 PM 84.2 °F 90.9 °F 73.4 °F 70% 29.98 in 6.2 mi SE 18.4 mph - N/A Rain Light Rain Showers
2:00 PM 85 °F - 76 °F 67% 29.94 in 16 mi SE 19.6 mph - -   Partly Cloudy
2:00 PM 86.0 °F 95.1 °F 75.2 °F 70% 29.95 in 6.2 mi SE 19.6 mph - N/A   Partly Cloudy
3:00 PM 84.2 °F 92.3 °F 75.2 °F 74% 29.92 in 6.2 mi SE 21.9 mph - N/A   Partly Cloudy
4:00 PM 84.2 °F 90.9 °F 73.4 °F 70% 29.89 in 6.2 mi SE 20.7 mph - N/A   Partly Cloudy
5:00 PM 83 °F - 72 °F 63% 29.91 in 15 mi SE 20.7 mph - -   Widespread Dust
5:00 PM 82.4 °F 87.2 °F 71.6 °F 70% 29.89 in 6.2 mi SE 20.7 mph - N/A   Partly Cloudy
6:00 PM 82.4 °F 88.2 °F 73.4 °F 74% 29.92 in 6.2 mi SE 18.4 mph - N/A   Partly Cloudy
7:00 PM 80.6 °F 85.4 °F 73.4 °F 79% 29.92 in 6.2 mi SE 17.3 mph - N/A   Partly Cloudy
8:00 PM 81 °F - 73 °F 71% 29.96 in 12 mi ESE 18.4 mph - -   Widespread Dust
8:00 PM 80.6 °F 85.4 °F 73.4 °F 79% 29.95 in 6.2 mi ESE 18.4 mph - N/A   Partly Cloudy
9:00 PM 80.6 °F 84.6 °F 71.6 °F 74% 29.98 in 6.2 mi SE 20.7 mph - N/A   Partly Cloudy
10:00 PM 80.6 °F 85.4 °F 73.4 °F 79% 29.98 in 6.2 mi SE 20.7 mph - N/A   Scattered Clouds
11:00 PM 81 °F - 72 °F 67% 29.98 in 12 mi ESE 18.4 mph - -   Widespread Dust
11:00 PM 80.6 °F 84.6 °F 71.6 °F 74% 29.98 in 6.2 mi ESE 18.4 mph - N/A   Partly Cloudy